Weather Roundup
Issued by NWS Chicago, IL

Home | Current Version | Previous Version | Graphics & Text | Print | Product List | Glossary On
Versions: 1 2 3 4 5 6 7 8 9 10 11 12 13 14 15 16 17 18 19 20 21 22 23 24 25 26 27 28 29 30 31 32 33 34 35 36 37 38 39 40 41 42 43 44 45 46 47 48 49 50
000
NZUS59 KLOT 010800
HRRLOT

CHICAGO AREA WEATHER ROUNDUP
NATIONAL WEATHER SERVICE CHICAGO/ROMEOVILLE IL
200 AM CST SUN FEB 01 2015

NOTE: "FAIR" INDICATES FEW OR NO CLOUDS BELOW 12,000 FEET WITH NO
SIGNIFICANT WEATHER AND/OR OBSTRUCTIONS TO VISIBILITY.

* THESE STATIONS ARE NOT UNDER NWS QUALITY CONTROL. THEY ALSO MAY NOT
  REPORT WEATHER SUCH AS PRECIPITATION OR FOG.

ILZ005-006-012>014-019>023-010900-
NORTHEAST ILLINOIS

CITY           SKY/WX    TMP DP  RH WIND       PRES   REMARKS
OHARE          LGT SNOW  31  30  96 E6        30.10F VSB 3/4 WCI  25
MIDWAY         LGT SNOW  33  31  92 E8        30.11F VSB 1   WCI  26
AURORA         LGT SNOW  33  30  88 E8        30.08F VSB 3/4 WCI  26
WAUKEGAN       LGT SNOW  29  28  96 NE13G22   30.11F VSB 3/4 WCI  19
DUPAGE AIRPORT LGT SNOW  31  29  92 E9        30.09S FOG     WCI  23
WHEELING       LGT SNOW  31  29  92 E5        30.12F VSB 3/4 WCI  26
NORTHERLY IS     N/A     32  30  93 E9          N/A  WCI  24
$$

WIZ051-052-058>065-066-070>072-010900-
SOUTHEAST WISCONSIN

CITY           SKY/WX    TMP DP  RH WIND       PRES   REMARKS
MILWAUKEE      LGT SNOW  28  24  85 NE17      30.14F FOG     WCI  16
KENOSHA*       LGT SNOW  29  27  92 NE13      30.12F FOG     WCI  19
RACINE*        LGT SNOW  29  25  85 NE15      30.14F FOG     WCI  18
$$

INZ001>003-010>013-019-020-010900-
NORTHWEST INDIANA

CITY           SKY/WX    TMP DP  RH WIND       PRES   REMARKS
GARY*          NOT AVBL
MICHIGAN CITY* NOT AVBL
RENSSELAER*    NOT AVBL
$$

LMZ740>746-010900-
SOUTHERN LAKE MICHIGAN

STATION/POSITION TIME  SKY/WX   TEMP WIND        PRES    VSBY
                                AIR  DIR/SP/G
                 (UTC)          (F)  (DEG/KT/KT) (MB)    (MI)
HARRISON CRIB    0700            31   60/ 10/ 11   N/A
BURNHAM HARBOR   0800            32   80/  7/  9   N/A
CALUMET HARBOR   0700            31   80/  6/  9   N/A
BURNS HARBOR     NOT AVBL
MICHIGAN CITY    0700            30   50/  5/  7   N/A
$$

ABBREVIATIONS USED IN REMARKS
   TC - TEMPERATURE IN CELSIUS
  WCI - WIND CHILL INDEX
   HX - HEAT INDEX
  VSB - VISIBILITY
$$


USA.gov is the U.S. government's official web portal to all federal, state and local government web resources and services.